Regional Weather Roundup
Issued by NWS

Home | Current Version | Previous Version | Graphics & Text | Print | Product List | Glossary On
Versions: 1 2 3 4 5 6 7 8 9 10 11 12 13 14 15 16 17 18 19 20 21 22 23 24 25 26 27 28 29 30 31 32 33 34 35 36 37 38 39 40 41 42 43 44 45 46 47 48 49 50
284
ASUS43 KMPX 231401
RWRMN
WEATHER ROUNDUP FOR MINNESOTA
NATIONAL WEATHER SERVICE TWIN CITIES/CHANHASSEN MN
900 AM CDT FRI JUN 23 2017


NOTE: "FAIR" INDICATES FEW OR NO CLOUDS BELOW 12,000 FEET WITH NO
SIGNIFICANT WEATHER AND/OR OBSTRUCTIONS TO VISIBILITY. N/A MEANS
CURRENT SKY AND/OR WEATHER CONDITIONS ARE NOT AVAILABLE.

MNZ060>063-068>070-231500-
   Twin Cities Metro

CITY           SKY/WX    TMP DP  RH WIND       PRES   REMARKS
TWIN CITIES    MOSUNNY   65  50  58 NW17      29.78R
ST PAUL        SUNNY     65  51  60 NW17G25   29.78R
CRYSTAL        SUNNY     64  48  56 W13G20    29.78R
BLAINE         SUNNY     64  52  63 W14       29.78R
LAKEVILLE      SUNNY     63  52  67 W13       29.80R
EDEN PRAIRIE   SUNNY     65  50  58 NW14      29.78R
SOUTH ST PAUL  SUNNY     65  49  57 NW12G17   29.78R
LAKE ELMO      FAIR      63  52  67 W13G21    29.79R
$$
MNZ001>005-007-008-013>017-022>024-027-028-231500-
   Northwest Minnesota

CITY           SKY/WX    TMP DP  RH WIND       PRES   REMARKS
BEMIDJI        CLOUDY    57  51  80 W15G23    29.77R
HALLOCK        CLOUDY    57  52  82 NW18G29   29.80R
ROSEAU           N/A     61  54  77 NW13      29.74R
WARROAD        CLOUDY    57  54  88 NW12G17   29.73R
CROOKSTON      PTSUNNY   61  54  77 NW17G29   29.81R
FOSSTON        DRIZZLE   55  52  88 NW14      29.80R
DETROIT LAKES  MOSUNNY   59  52  77 N15G24    29.83R
MOORHEAD       PTSUNNY   61  52  72 NW16G22   29.85R
PARK RAPIDS    PTSUNNY   61  47  59 NW20      29.78R
MAHNOMEN       CLOUDY    58  52  79 NW15G23   29.81R
$$
MNZ006-009>011-018-025>026-231500-
   North Central Minnesota

CITY           SKY/WX    TMP DP  RH WIND       PRES   REMARKS
BAUDETTE       CLOUDY    58  52  80 NW13      29.70R
FLAG ISLAND    CLOUDY    57  52  82 W15       29.69R
INTL FALLS     LGT RAIN  56  50  80 NW14G25   29.66R
WASKISH        CLOUDY    57  52  82 NW14G21   29.72R
BIG FORK       CLOUDY    61  50  67 NW5       29.70R
LONGVILLE      CLOUDY    61  52  72 W10G17    29.75R
GRAND RAPIDS   CLOUDY    59  48  67 NW20      29.73R
CRANE LAKE     CLOUDY    55  52  88 NW5       29.65R
ORR            CLOUDY    57  46  67 W12G21    29.64R
COOK           CLOUDY    57  48  72 W16       29.66R
WALKER         CLOUDY    58  50  73 W9G22     29.76R
$$
MNZ012-019>021-037-231500-
   Northeast Minnesota

CITY           SKY/WX    TMP DP  RH WIND       PRES   REMARKS
DULUTH         PTSUNNY   59  51  75 NW15      29.67R
ELY            PTSUNNY   57  48  72 W12G20    29.63S
HIBBING        PTSUNNY   57  49  74 NW13G23   29.67R
EVELETH        PTSUNNY   60  46  59 W13       29.67R
DULUTH HARBOR  SUNNY     63  54  72 W18       29.68R
TWO HARBORS    MOSUNNY   64  54  68 NW9G16    29.63S
SILVER BAY     MOSUNNY   63  52  67 W5        29.61S
GRAND MARAIS     N/A     54  46  74 W7        29.58S
G MARAIS ARPRT MOSUNNY   57  45  62 W8        29.60S
$$
MNZ029>031-032-039>041-046>048-054>057-064-231500-
   West Central Minnesota

CITY           SKY/WX    TMP DP  RH WIND       PRES   REMARKS
FERGUS FALLS   CLOUDY    61  54  77 NW18      29.83R
WHEATON        CLOUDY    61  52  72 W14G21    29.90R
MORRIS         PTSUNNY   61  55  82 NW22G28   29.86R
ALEXANDRIA     CLOUDY    60  52  74 NW17G24   29.85R
ELBOW LAKE     CLOUDY    60  54  83 NW13G24   29.86R
WADENA         PTSUNNY   59  50  72 NW15G25   29.81R
GLENWOOD       PTSUNNY   61  54  77 NW17G23   29.84R
APPLETON       PTSUNNY   63  54  72 NW21G32   29.86R
BENSON         PTSUNNY   64  55  72 N22       29.86S
ORTONVILLE     CLOUDY    63  52  67 NW15G23   29.88R
MADISON        MOSUNNY   66  55  68 NW23G30   29.88R
WILLMAR        PTSUNNY   63  55  77 NW25      29.84S
$$
MNZ033>034-036-042>043-049>051-058-059-231500-
   Central Minnesota

CITY           SKY/WX    TMP DP  RH WIND       PRES   REMARKS
ST CLOUD       SUNNY     64  52  64 W15       29.79R
SAUK CENTRE    CLOUDY    62  53  72 W12G22    29.82R
PAYNESVILLE    PTSUNNY   62  53  72 NW15G26   29.82S
AITKIN         PTSUNNY   61  52  72 W7        29.73R
PINE RIVER     CLOUDY    59  50  72 W10       29.80R
BRAINERD       MOSUNNY   61  51  70 NW16G22   29.78R
STAPLES        SUNNY     63  48  59 NW17G25   29.79R
LONG PRAIRIE   CLOUDY    59  52  77 W14G21    29.82R
LITTLE FALLS   PTSUNNY   61  50  67 W14G21    29.79R
BUFFALO        SUNNY     63  50  62 W14G21    29.81R
MAPLE LAKE     SUNNY     63  53  70 W13G20    29.81S
HUTCHINSON     MOSUNNY   63  54  72 W15G21    29.83S
$$
MNZ037-044-045-052-053-231500-
   East Central Minnesota

CITY           SKY/WX    TMP DP  RH WIND       PRES   REMARKS
PRINCETON      SUNNY     66  54  63 W12G18    29.77S
MORA           SUNNY     61  48  63 NW10G20   29.76R
CAMBRIDGE      SUNNY     66  52  59 W16       29.76R
RUSH CITY      SUNNY     63  52  67 W6        29.76R
MOOSE LAKE     MOSUNNY   61  50  67 W13       29.71R
HINCKLEY       FAIR      63  52  67 W10G16    29.74R
CLOQUET        MOSUNNY   61  48  63 W15G22    29.70R
MCGREGOR       MOSUNNY   61  52  72 W12       29.73R
$$
MNZ071>073-080-081-089-090-097-098-231500-
   Southwest Minnesota

CITY           SKY/WX    TMP DP  RH WIND       PRES   REMARKS
MONTEVIDEO     MOSUNNY   66  55  68 N16G26    29.85S
GRANITE FALLS  MOSUNNY   65  55  71 W26G32    29.89R
CANBY          PTSUNNY   64  53  68 W20G35    29.91R
MARSHALL       PTSUNNY   63  53  70 NW24G32   29.88R
REDWOOD FALLS  PTSUNNY   62  52  69 NW17      29.86R
OLIVIA         CLOUDY    63  54  72 NW16G23   29.84S
PIPESTONE      MOSUNNY   61  52  72 NW15G24   29.94R
WINDOM         MOSUNNY   63  52  67 NW15G24   29.90R
WORTHINGTON    MOSUNNY   61  51  70 NW21G28   29.93R
JACKSON        PTSUNNY   63  52  67 NW17      29.90S
TRACY          CLOUDY    62  54  74 NW14G25   29.90R
SLAYTON        CLOUDY    59  51  72 NW18G25   29.93R
$$
MNZ065>067-074>077-082>085-091>093-231500-
   South Central Minnesota

CITY           SKY/WX    TMP DP  RH WIND       PRES   REMARKS
MANKATO        SUNNY     63  51  65 NW15G21   29.85R
NEW ULM        MOSUNNY   63  52  67 NW16G22   29.85S
ST JAMES       MOSUNNY   63  52  67 W13G23    29.88S
FAIRMONT       CLOUDY    62  51  67 NW15      29.88R
GLENCOE        SUNNY     64  55  74 W15G21    29.82S
FARIBAULT      SUNNY     63  52  67 W13G20    29.82R
OWATONNA       SUNNY     63  54  72 W16       29.83R
WASECA         SUNNY     63  50  63 NW14G22   29.86R
ALBERT LEA     SUNNY     63  52  67 NW9G21    29.84S
$$
MNZ078>079-086>088-094>096-231500-
   Southeast Minnesota

CITY           SKY/WX    TMP DP  RH WIND       PRES   REMARKS
ROCHESTER      SUNNY     65  53  65 NW15      29.82R
RED WING       SUNNY     64  54  68 NW8       29.76S
STANTON        SUNNY     64  53  65 W14       29.79R
DODGE CENTER   SUNNY     63  52  67 NW12G20   29.82R
WINONA         SUNNY     70  59  68 NW9G17    29.76R
AUSTIN         SUNNY     64  52  63 W13G22    29.82R
PRESTON        SUNNY     65  54  68 NW15G24   29.80R
$$
ABBREVIATIONS USED IN REMARKS
   TC - TEMPERATURES IN CELSIUS
  WCI - WIND CHILL INDEX
   HX - HEAT INDEX
  VSB - VISIBILITY
$$




USA.gov is the U.S. government's official web portal to all federal, state and local government web resources and services.